Date,TemperatureHighF,TemperatureAvgF,TemperatureLowF,DewpointHighF,DewpointAvgF,DewpointLowF,HumidityHigh,HumidityAvg,HumidityLow,PressureMaxIn,PressureMinIn,WindSpeedMaxMPH,WindSpeedAvgMPH,GustSpeedMaxMPH,PrecipitationSumIn
2013-4-17,62.0,47.2,35.0,31.0,26.1,23.0,77,45,25,30.24,30.14,14,2,16,0.00
2013-4-18,48.0,38.8,26.0,37.0,26.0,16.0,82,60,34,30.42,30.14,13,4,15,0.00
2013-4-19,55.0,48.9,44.0,36.0,3.6,-40.0,69,21,1,30.14,29.68,29,8,29,0.00
2013-4-20,53.0,48.1,39.0,36.0,15.5,-40.0,68,29,1,30.02,29.57,26,6,26,0.33
2013-4-21,53.0,41.3,30.0,32.0,23.5,11.0,80,52,20,30.56,30.02,17,4,17,0.00
2013-4-22,48.0,36.9,26.0,38.0,22.4,-6.0,79,56,23,30.77,30.55,20,4,20,0.00
2013-4-23,42.0,37.7,26.0,26.0,5.9,-13.0,59,30,7,30.55,30.12,20,7,20,0.14
2013-4-24,52.0,45.5,41.0,8.0,-10.6,-40.0,23,9,1,30.12,29.69,23,6,23,1.17
2013-4-25,62.0,48.9,41.0,47.5,20.8,-40.0,94,39,1,30.18,29.78,24,5,24,0.18
2013-4-26,53.0,43.5,31.0,37.0,31.3,28.0,99,64,42,30.41,30.18,16,4,17,0.00
2013-4-27,55.0,41.5,28.0,35.0,30.1,21.0,100,69,30,30.38,30.20,17,4,17,0.00
2013-4-28,58.0,43.5,31.0,42.0,37.1,31.0,100,81,48,30.33,30.16,13,4,14,0.00
2013-4-29,62.0,45.6,30.0,43.0,37.0,29.0,100,77,31,30.29,30.14,13,4,13,0.00
2013-4-30,64.0,47.2,31.0,46.0,35.2,24.0,100,70,24,30.36,30.16,13,4,13,0.00
2013-5-1,63.0,46.8,32.0,45.0,34.9,26.0,100,69,26,30.48,30.28,15,4,15,0.00
2013-5-2,55.0,45.0,35.0,43.0,38.2,35.0,100,79,54,30.46,30.32,23,6,23,0.00
2013-5-3,58.0,48.3,40.0,44.0,39.4,35.0,90,72,55,30.51,30.32,17,5,17,0.00
2013-5-4,53.0,42.9,32.0,41.0,36.0,31.0,100,79,45,30.36,30.22,19,4,19,0.00
2013-5-5,57.0,43.8,30.0,44.0,35.7,31.0,100,76,48,30.31,30.16,16,4,16,0.00
2013-5-6,58.0,44.8,31.0,47.0,39.8,31.0,100,85,57,30.28,30.12,20,4,20,0.00
2013-5-7,62.0,50.3,41.0,52.0,46.6,41.0,100,89,62,30.18,30.08,17,5,17,0.00
2013-5-8,69.0,52.6,42.0,60.0,50.3,42.0,100,93,63,30.31,30.11,13,4,13,0.01
2013-5-9,56.0,50.6,48.0,56.0,50.6,48.0,100,100,98,30.12,29.88,13,4,15,0.40
2013-5-10,62.0,52.2,47.0,57.0,51.6,47.0,100,98,82,29.95,29.84,13,3,13,0.01
2013-5-11,55.0,50.7,45.0,55.0,50.7,45.0,100,100,100,29.92,29.70,19,5,19,0.27
2013-5-12,55.0,51.2,47.0,55.0,51.2,47.0,100,100,100,29.70,29.50,16,4,18,0.40
2013-5-13,54.0,46.0,36.0,47.0,39.2,33.0,100,79,51,29.90,29.62,32,6,32,0.03
2013-5-14,58.0,47.1,36.0,41.0,35.3,29.0,100,65,32,29.95,29.85,15,3,15,0.00
2013-5-15,60.0,47.6,31.0,47.0,36.8,26.0,100,71,28,29.97,29.65,22,6,22,0.28
2013-5-16,66.0,55.1,46.0,56.0,48.9,42.0,100,82,52,29.72,29.54,18,4,18,0.00
2013-5-17,63.0,53.3,40.0,46.0,40.9,37.0,93,65,43,30.09,29.71,22,4,22,0.00
2013-5-18,54.0,47.1,36.0,45.0,39.6,36.0,100,77,58,30.31,30.12,14,4,14,0.00
2013-5-19,56.0,46.7,35.0,47.5,42.4,35.0,100,86,58,30.38,30.23,15,4,15,0.00
2013-5-20,54.0,50.1,47.0,54.0,50.0,47.0,100,100,98,30.23,29.90,18,4,18,1.07
2013-5-21,48.0,46.8,46.0,48.0,46.8,46.0,100,100,100,30.02,29.94,13,4,13,0.10
2013-5-22,49.0,47.2,46.0,49.0,47.2,46.0,100,100,100,30.00,29.88,19,7,19,0.72
2013-5-23,58.0,51.9,46.0,58.0,51.9,46.0,100,100,100,29.90,29.83,20,5,20,0.01
2013-5-24,59.0,55.2,50.0,59.0,55.2,50.0,100,100,100,29.84,29.67,24,6,24,0.15
2013-5-25,52.0,49.5,46.0,52.0,49.5,46.0,100,100,100,29.75,29.63,24,7,24,0.36
2013-5-26,50.0,46.7,42.0,49.0,46.5,41.0,100,99,91,29.82,29.56,16,4,16,0.45
2013-5-27,67.0,49.6,39.0,47.0,41.5,32.0,100,79,29,30.07,29.81,19,3,20,0.01
2013-5-28,67.0,52.2,35.0,51.0,40.4,35.0,100,70,32,30.26,30.06,17,4,17,0.00
2013-5-29,52.0,48.3,42.0,52.0,48.3,41.0,100,100,96,30.18,29.95,15,3,15,0.46
2013-5-30,77.0,56.7,49.0,67.0,55.3,49.0,100,96,67,30.06,29.91,15,3,15,0.01
2013-5-31,82.0,73.2,61.0,66.7,60.4,57.5,93,66,47,30.08,29.88,18,6,18,1.66
2013-6-1,82.0,68.1,56.0,66.0,60.2,53.0,100,78,54,29.99,29.79,15,4,15,0.00
2013-6-2,72.0,63.2,58.0,64.5,59.5,57.0,100,88,72,29.85,29.73,21,7,21,0.00
2013-6-3,64.0,58.8,55.0,64.0,58.3,55.0,100,98,86,29.80,29.70,17,5,17,0.07
2013-6-4,67.0,59.9,50.0,56.0,45.9,37.0,100,64,37,29.94,29.68,19,4,19,0.00
2013-6-5,66.0,56.2,43.0,50.5,43.9,38.0,100,66,39,30.12,29.93,17,5,17,0.00
2013-6-6,65.0,55.9,43.0,53.5,47.9,39.0,100,78,42,30.23,30.07,11,2,11,0.00
2013-6-7,58.0,52.9,50.0,54.0,50.3,41.0,100,92,63,30.12,29.94,17,4,17,0.42
2013-6-8,64.0,56.1,50.0,64.0,55.5,50.0,100,98,82,29.94,29.59,25,6,25,2.67
2013-6-9,63.0,56.6,51.0,56.5,53.4,50.0,100,90,69,30.09,29.91,12,3,13,0.00
2013-6-10,67.0,58.2,51.0,57.5,52.1,48.0,100,82,60,30.22,30.01,13,3,14,0.00
2013-6-11,53.0,51.4,49.0,53.0,51.3,49.0,100,100,96,30.01,29.44,29,7,29,1.28
2013-6-12,59.0,54.0,50.0,58.0,54.0,50.0,100,100,98,29.64,29.38,20,3,20,0.73
2013-6-13,68.0,57.6,51.0,61.0,53.0,50.0,100,86,61,29.78,29.63,13,3,13,0.13
2013-6-14,60.0,53.8,48.0,54.5,50.3,46.0,100,88,64,29.68,29.62,10,3,10,0.00
2013-6-15,76.0,61.1,44.0,54.5,46.6,38.0,100,65,26,29.86,29.61,22,4,22,0.00
2013-6-16,76.0,61.1,47.0,57.0,50.3,45.0,100,72,37,29.93,29.71,13,4,15,0.01
2013-6-17,74.0,67.2,54.0,62.0,58.0,54.0,100,74,53,29.85,29.67,16,5,16,0.29
2013-6-18,68.0,61.5,54.0,58.0,54.6,50.5,100,80,57,29.96,29.77,13,3,13,0.00
2013-6-19,75.0,67.5,51.0,55.0,47.0,36.0,100,52,27,30.04,29.84,17,4,17,0.00
2013-6-20,73.0,68.4,58.0,56.5,51.5,44.0,89,56,39,30.26,30.03,12,5,12,0.00
2013-6-21,75.0,68.3,50.0,60.0,52.9,47.5,100,60,42,30.23,30.15,14,5,14,0.00
2013-6-22,75.0,69.9,65.0,63.5,61.8,59.5,83,76,62,30.22,30.12,10,5,11,0.00
2013-6-23,65.0,58.9,57.0,59.5,58.1,57.0,100,97,83,30.12,30.07,9,5,9,0.09
2013-6-24,82.0,73.5,64.0,67.5,65.4,62.5,97,77,62,29.87,29.79,9,4,9,0.02
2013-6-25,84.0,75.6,64.0,68.5,65.2,59.5,100,72,46,29.88,29.68,14,5,14,0.10
2013-6-26,73.0,61.4,54.0,73.0,61.2,54.0,100,99,88,29.84,29.67,15,4,15,0.18
2013-6-27,56.0,52.7,51.0,56.0,52.7,51.0,100,100,100,29.84,29.79,14,6,15,0.00
2013-8-6,74.0,64.6,52.0,57.0,53.8,52.0,100,72,48,30.15,30.08,17,5,17,0.00
2013-8-7,74.0,62.9,49.0,62.0,54.2,47.0,100,77,43,30.24,30.07,13,4,13,0.00
2013-8-8,64.0,59.3,54.0,63.0,59.3,54.0,100,100,100,30.12,29.50,10,1,10,0.06
2013-8-9,68.0,64.6,62.0,68.0,64.6,62.0,100,100,100,30.03,29.66,16,5,16,0.61
2013-8-10,80.0,70.4,60.0,73.0,59.3,47.0,100,71,37,29.92,29.67,16,4,16,0.02
2013-8-11,76.0,63.9,50.0,60.0,53.7,47.0,100,72,46,30.04,29.89,15,4,15,0.00
2013-8-12,77.0,67.1,53.0,66.0,58.3,53.0,100,76,50,30.01,29.86,12,4,12,0.00
2013-8-13,70.0,58.1,53.0,69.0,58.0,53.0,100,100,95,29.87,29.82,8,2,8,0.00
2013-8-14,71.0,64.9,58.0,67.0,59.0,48.0,100,82,66,29.84,29.60,16,5,16,0.00
2013-8-15,72.0,62.1,49.0,59.0,53.1,49.0,100,75,46,30.02,29.77,19,5,19,0.00
2013-8-16,76.0,69.9,51.0,62.0,57.2,51.0,100,66,50,30.17,30.00,14,4,14,0.00
2013-8-17,77.0,66.7,54.0,64.0,57.0,52.0,100,74,44,30.28,29.67,12,4,12,0.00
2013-8-18,75.0,65.0,51.0,63.0,57.3,51.0,100,79,50,30.26,30.06,13,4,13,0.00
2013-8-19,77.0,69.5,55.0,66.0,62.1,55.0,100,79,62,29.95,29.86,14,5,14,0.00
2013-8-20,81.0,74.2,60.0,70.0,63.7,60.0,100,72,56,30.08,29.88,13,4,13,0.00
2013-8-21,82.0,73.0,56.0,69.0,63.4,56.0,100,74,54,30.16,29.96,13,4,13,0.00
2013-8-22,79.0,68.8,56.0,69.0,63.1,56.0,100,84,64,29.96,29.73,13,4,14,0.00
2013-8-23,78.0,67.4,55.0,66.0,58.3,49.0,100,76,41,30.06,29.73,17,3,17,0.01
2013-8-24,78.0,62.7,50.0,56.0,50.8,43.0,100,70,32,30.29,30.05,14,3,14,0.00
2013-8-25,76.0,61.7,47.0,59.0,52.2,47.0,100,75,35,30.36,30.09,14,4,14,0.00
2013-8-26,71.0,60.7,52.0,65.0,59.0,52.0,100,95,78,30.09,29.82,17,3,17,0.00
2013-8-27,81.0,67.3,58.0,71.0,62.9,58.0,100,88,62,29.93,29.79,13,2,13,0.00
2013-8-28,73.0,61.1,56.0,70.0,60.4,56.0,100,98,78,29.95,29.84,12,2,12,0.01
2013-8-29,69.0,61.3,52.0,64.0,59.0,52.0,100,93,72,30.08,29.93,21,4,21,0.16
2013-8-30,70.0,59.9,50.0,62.0,56.9,50.0,100,91,68,29.93,29.74,17,3,18,0.22
2013-8-31,76.0,65.0,60.0,72.0,64.1,60.0,100,97,77,29.87,29.72,9,2,15,0.31
2013-9-1,80.0,67.4,61.0,75.0,66.1,61.0,100,96,74,29.94,29.74,9,2,9,0.30
2013-9-2,63.0,60.7,58.0,63.0,60.7,58.0,100,100,100,29.93,29.73,25,6,26,2.25
2013-9-3,72.0,65.4,62.0,72.0,65.4,62.0,100,100,98,29.77,29.68,10,2,10,0.90
2013-9-4,75.0,64.9,57.0,67.0,61.8,57.0,100,91,62,29.83,29.69,17,4,17,0.01
2013-9-5,68.0,57.5,45.0,60.0,54.1,43.0,100,91,43,30.01,29.81,8,2,11,0.40
2013-9-6,65.0,53.6,39.0,54.0,45.9,38.0,100,79,40,30.16,29.95,17,4,17,0.00
2013-9-7,68.0,58.3,49.0,60.0,54.2,49.0,100,88,62,29.96,29.73,12,4,19,0.00
2013-9-8,65.0,56.7,46.0,61.0,53.1,40.0,100,89,53,29.91,29.63,17,3,18,0.49
2013-9-9,63.0,52.4,40.0,56.0,46.0,40.0,100,82,50,30.15,29.91,18,5,18,0.00
2013-9-10,66.0,59.0,55.0,61.0,57.9,54.0,100,97,83,30.10,30.01,17,4,20,0.02
2013-9-11,74.0,63.4,57.0,71.0,62.9,57.0,100,99,84,30.02,29.89,20,2,20,0.01
2013-9-12,76.0,64.6,61.0,73.0,64.4,61.0,100,99,80,29.99,29.66,14,4,15,0.32
2013-9-13,66.0,61.8,58.0,66.0,61.8,58.0,100,100,100,29.66,29.55,18,2,18,0.27
2013-9-14,71.0,60.6,53.0,64.0,58.2,53.0,100,93,70,29.92,29.59,15,3,19,0.00
2013-9-15,66.0,55.5,47.0,57.0,51.8,47.0,100,89,60,30.09,29.92,19,3,19,0.00
2013-9-16,65.0,54.0,42.0,58.0,51.3,36.0,100,92,73,30.11,29.88,12,2,12,0.00
2013-9-17,66.0,53.6,36.0,50.0,44.2,35.0,100,74,43,30.32,29.53,15,3,15,0.00
2013-9-18,68.0,54.0,40.0,53.0,47.1,40.0,100,81,45,30.23,30.00,13,4,15,0.00
2013-9-19,74.0,57.6,44.0,58.0,49.9,44.0,100,80,44,30.10,29.94,13,3,13,0.00
2013-9-20,74.0,60.8,47.0,60.0,52.9,47.0,100,78,50,30.12,29.92,10,3,10,0.00
2013-9-21,67.0,59.5,55.0,62.0,58.4,55.0,100,97,82,29.99,29.79,16,4,16,0.00
2013-9-22,64.0,59.7,53.0,64.0,59.6,51.0,100,100,96,29.79,29.58,20,4,22,0.63
2013-9-23,59.0,51.1,44.0,51.0,44.7,41.0,99,80,61,29.80,29.62,19,4,19,0.00
2013-9-24,52.0,49.3,46.0,48.0,44.7,41.0,99,84,70,29.78,29.71,15,4,15,0.08
2013-9-25,63.0,52.7,47.0,51.0,47.8,45.0,97,84,62,29.86,29.72,14,2,14,0.00
2013-9-26,65.0,54.0,44.0,54.0,49.4,44.0,100,86,60,30.03,29.85,16,2,16,0.00
2013-9-27,72.0,57.5,49.0,57.0,52.3,48.0,100,86,48,30.20,30.02,15,2,15,0.00
2013-9-28,70.0,54.4,44.0,61.0,50.7,44.0,100,90,53,30.32,30.15,10,2,10,0.00
2013-9-29,66.0,52.4,40.0,61.0,48.1,40.0,100,88,49,30.22,30.03,11,3,12,0.00
2013-9-30,64.0,51.9,43.0,56.0,51.1,43.0,100,97,74,30.07,29.88,10,2,10,0.00
2013-10-1,76.0,58.1,48.0,59.0,52.4,48.0,100,84,45,29.88,29.74,11,2,12,0.00
2013-10-2,73.0,57.9,48.0,61.0,54.3,48.0,100,90,61,29.80,29.71,13,4,14,0.00
2013-10-3,73.0,58.7,46.0,53.0,49.3,45.0,100,75,38,30.02,29.77,19,4,19,0.00
2013-10-4,71.0,55.7,43.0,56.0,48.3,43.0,100,80,43,30.07,29.92,13,3,14,0.00
2013-10-5,62.0,51.6,43.0,50.0,46.0,40.0,100,83,54,30.11,30.00,8,2,9,0.00
2013-10-6,58.0,50.1,39.0,48.0,40.1,33.0,100,71,43,30.24,30.04,13,2,14,0.15
2013-10-7,64.0,56.5,46.0,62.0,56.1,46.0,100,99,86,30.16,29.79,20,4,20,0.03
2013-10-8,63.0,54.8,39.0,62.0,47.8,38.0,100,80,45,30.26,29.78,22,4,25,0.29
2013-10-9,61.0,47.0,37.0,50.0,40.6,37.0,100,82,43,30.43,30.24,12,2,12,0.00
2013-10-10,62.0,47.0,36.0,53.0,43.3,36.0,100,89,53,30.27,30.08,13,3,13,0.00
2013-10-11,64.0,52.0,39.0,58.0,48.5,39.0,100,90,60,30.14,30.03,21,2,21,0.00
2013-10-12,57.0,50.2,39.0,54.0,46.9,39.0,100,90,68,30.34,30.14,17,5,18,0.00
2013-10-13,59.0,46.0,37.0,50.0,41.8,37.0,100,88,51,30.42,30.26,11,3,11,0.00
2013-10-14,59.0,48.0,36.0,52.0,44.5,36.0,100,89,65,30.30,30.18,16,4,17,0.00
2013-10-15,66.0,54.5,46.0,58.0,51.4,46.0,100,91,64,30.26,30.14,10,2,10,0.00
2013-10-16,57.0,53.4,50.0,56.0,53.3,50.0,100,100,96,30.16,29.83,15,3,15,0.15
2013-10-17,57.0,53.5,50.0,56.0,53.5,50.0,100,100,100,29.83,29.67,13,3,14,0.01
2013-10-18,65.0,54.2,47.0,60.0,52.9,47.0,100,96,64,29.71,29.53,20,3,20,0.28
2013-10-19,62.0,49.5,40.0,50.0,46.1,40.0,100,90,52,29.87,29.70,16,3,18,0.00
2013-10-20,63.0,53.1,43.0,58.0,45.2,31.0,100,78,38,29.81,29.60,22,2,22,0.14
2013-10-21,60.0,47.5,38.0,47.0,39.5,33.0,100,76,43,29.99,29.79,18,3,19,0.00
2013-10-22,59.0,53.0,44.0,57.0,51.8,42.0,100,96,84,29.91,29.61,15,4,16,0.01
2013-10-23,54.0,43.6,33.0,47.0,38.2,33.0,100,84,49,29.67,29.44,12,2,13,0.00
2013-10-24,52.0,43.7,34.0,42.0,33.1,26.0,100,69,38,29.64,29.44,24,4,24,0.01
2013-10-25,53.0,42.9,35.0,36.0,31.8,28.0,93,65,46,29.91,29.64,17,3,17,0.00
2013-10-26,50.0,40.2,28.0,41.0,33.7,26.0,100,79,48,29.99,29.75,23,4,23,0.02
2013-10-27,54.0,45.6,37.0,47.0,39.6,31.0,100,81,60,29.83,29.68,15,3,15,0.10
2013-10-28,55.0,41.4,30.0,43.0,33.3,26.0,100,74,48,30.16,29.81,27,5,27,0.00
2013-10-29,49.0,33.5,23.0,33.0,26.1,21.0,100,77,35,30.30,30.15,13,3,13,0.00
2013-10-30,49.0,34.8,24.0,40.0,28.1,23.0,100,79,40,30.15,30.00,12,3,12,0.00
2013-10-31,56.0,42.1,25.0,56.0,40.5,26.0,100,94,65,30.13,29.74,24,4,25,0.35
2013-11-1,61.0,57.8,55.0,61.0,57.3,54.0,100,98,91,29.74,29.30,29,10,32,0.55
2013-11-2,60.0,50.6,41.0,56.0,48.0,41.0,100,92,63,29.62,29.44,16,3,16,0.00
2013-11-3,47.0,36.0,28.0,43.0,26.0,18.0,98,68,39,30.18,29.61,20,4,22,0.08
2013-11-4,43.0,30.3,23.0,24.0,20.6,16.0,100,68,38,30.51,30.18,16,3,16,0.00
2013-11-5,47.0,35.3,23.0,38.0,31.4,23.0,100,85,63,30.58,30.38,13,3,13,0.00
2013-11-6,53.0,47.2,35.0,50.0,43.7,33.0,100,88,72,30.37,29.91,24,6,24,0.00
2013-11-7,57.0,50.8,35.0,57.0,50.1,33.0,100,98,88,29.91,29.54,25,6,26,0.26
2013-11-8,46.0,37.5,29.0,35.0,28.2,24.0,100,69,47,29.75,29.56,19,4,19,0.00
2013-11-9,46.0,35.3,24.0,28.0,24.3,21.0,100,66,37,29.93,29.74,21,4,21,0.00
2013-11-10,49.0,38.8,27.0,47.0,37.8,28.0,100,96,78,29.89,29.52,22,2,22,0.08
2013-11-11,46.0,39.1,34.0,42.0,34.0,29.0,100,83,58,29.83,29.54,28,4,28,0.01
2013-11-12,46.0,40.4,32.0,39.0,32.2,18.0,91,72,55,29.80,29.69,26,7,26,0.01
2013-11-22,41.0,35.0,31.0,32.0,30.6,26.0,98,84,57,29.93,29.60,7,1,8,0.00
2013-11-23,41.0,34.9,27.0,39.0,25.2,16.0,100,69,39,29.60,29.43,28,6,28,0.04
2013-11-24,28.0,21.2,18.0,18.0,9.7,4.0,69,56,43,29.69,29.40,29,8,30,2.00
2013-11-25,30.0,20.4,15.0,14.0,4.5,-40.0,74,48,24,30.56,29.42,26,6,26,19.80
2013-11-26,37.0,33.7,24.0,29.0,26.8,21.0,83,74,72,30.07,29.48,18,7,18,0.00
2013-12-10,30.0,30.0,30.0,31.0,31.0,31.0,100,100,100,29.45,29.44,0,0,0,0.00